weather.gov     
National Weather Service

Regional Weather Roundup
NWS Homepage
This page is being discontinued on March 12, 2014.
The same data is available at this site. Please update your bookmarks.
Thank you, and we apologize for the inconvenience.
Please send an email to SR-SRH.Webmaster@noaa.gov with any concerns.


Current Version
Previous Version:    01  02  03  04  05  06  07  08  09  10  11  12  13  14  15  16  17  18  19  20  21  22  23  24  25  26  27  28  29  30  
   31  32  33  34  35  36  37  38  39  40  41  42  43  44  45  46  47  48  49  50  51  52  53  
[Printable]
558
ASUS45 KTFX 220004
RWRMT
MONTANA HOURLY WEATHER ROUNDUP
NATIONAL WEATHER SERVICE GREAT FALLS MT
604 PM MDT THU AUG 21 2014

NOTE: "FAIR" INDICATES FEW OR NO CLOUDS BELOW 12000 FEET WITH NO
SIGNIFICANT WEATHER AND/OR OBSTRUCTIONS TO VISIBILITY.

* THESE STATIONS ARE NOT UNDER NWS QUALITY CONTROL. THEY DO NOT
   REPORT WEATHER SUCH AS PRECIPITATION OR FOG.

MTZ001>007-043-220100-
WEST OF THE DIVIDE
CITY           SKY/WX    TMP DP  RH WIND       PRES   REMARKS
KALISPELL      MOCLDY    66  48  52 NE18      30.04S
MISSOULA       LGT RAIN  70  50  49 N14G21    29.99R
BUTTE          CLOUDY    63  46  54 S13       30.08S
MULLAN PASS    MOCLDY    54  46  74 VRB7      30.08F
* ESSEX        N/A       57  44  62 E4G10      N/A
* LINCOLN      N/A       61  48  62 NE14G25    N/A
* LOOKOUT PASS N/A       61  48  62 S9G16      N/A
* POLSON       N/A       63  53  70 N2         N/A
* RONAN APT    MOCLDY    66  54  65 N9         N/A
* SEELEY LAKE  N/A       70  45  41 N7G14      N/A
* THOMP F APT  MOCLDY    58  47  67 NW5G15     N/A
* YAAK HILL    N/A       73  43  34 N/A        N/A
$$

MTZ008-052>055-220100-
SOUTHWEST MONTANA
CITY           SKY/WX    TMP DP  RH WIND       PRES   REMARKS
BOZEMAN        PTCLDY    66  50  56 N7        30.06F
DILLON         TSTM      63  48  58 NE21G26   30.03R
W YELLOWSTONE  CLOUDY    59  46  62 W6        30.15R
* THREE FORKS  MOCLDY    66  66 100 NE8        N/A
* BOULDER HILL N/A       62  42  48 N4         N/A
* MONIDA PASS  N/A       55  42  62 S10        N/A
* RAYNOLDS PAS N/A       51   4  14 N12G17     N/A
* WHITEHALL    N/A       68  52  57 E6G14      N/A
* WISE RIVER   N/A       64  44  48 SE13G20    N/A
$$

MTZ009>010-012-014-046-048-049-054-220100-
EAST SLOPES AND CENTRAL MONTANA
CITY           SKY/WX    TMP DP  RH WIND       PRES   REMARKS
CUT BANK       CLOUDY    54  48  80 N14       30.16R
GREAT FALLS    CLOUDY    64  48  56 N13       30.10R
HELENA         MOCLDY    64  50  61 N18G28    30.05R
MALMSTROM AFB  MOCLDY    61  55  81 VRB3      30.11R
* CONRAD       PTCLDY    55  55 100 N8         N/A
* DEARBORN     N/A       63  50  63 N11        N/A
* EAST GLACIER N/A       49  46  89 S4         N/A
* MONARCH      N/A       57  44  62 W3         N/A
* PENDROY      N/A       52  50  93 NE13G19    N/A
* ROGERS PASS  N/A       50  49  96 S4         N/A
* SAINT MARY   N/A       50  49  96 N5G10      N/A
* SWEET GRASS  N/A       52  52 100 N16G21     N/A
$$

MTZ011-013-016-021-035-040-045-047-050-051-220100-
NORTH CENTRAL MONTANA
CITY           SKY/WX    TMP DP  RH WIND       PRES   REMARKS
HAVRE          MOCLDY    64  52  65 N17G26    30.08R
LEWISTOWN      CLOUDY    61  55  81 W8        30.12R
* CHESTER      N/A       59  48  67 NE13G22    N/A
* DENTON       N/A       64  51  63 NW5        N/A
* GEYSER       N/A       63  47  56 SW12       N/A
* JUDITH GAP   N/A       56  56 100 N8         N/A
* LOMA         N/A       64  53  68 N17G23     N/A
$$

MTZ017>020-022>027-061-062-220100-
NORTHEAST MONTANA
CITY           SKY/WX    TMP DP  RH WIND       PRES   REMARKS
GLASGOW        HVY RAIN  61  61 100 N7        30.03R VSB 3/4
GLENDIVE       PTCLDY    68  61  78 NE9       29.99S
JORDAN         CLOUDY    66  57  73 N10       30.02R
SIDNEY         CLEAR     73  63  71 E3        29.98R
WOLF POINT     HVY RAIN  63  59  87 W13G24    30.00R VSB 3/4
* BEAVER HILL  N/A       71  60  68 NW11       N/A
* CIRCLE       N/A       64  60  87 N4         N/A
* LINDSAY DVD  N/A       69  56  63 NW8G13     N/A
* SACO         N/A       64  61  90 N9         N/A
$$

MTZ028>042-056>058-220100-
SOUTHCENTRAL AND SOUTHEAST MONTANA
CITY           SKY/WX    TMP DP  RH WIND       PRES   REMARKS
BAKER          MOCLDY    75  57  54 NE7       29.98S
BILLINGS       LGT RAIN  61  57  87 N/A       30.09R
LIVINGSTON     PTCLDY    64  52  65 E14       30.09R
MILES CITY     LGT RAIN  72  57  59 NW7       29.99R
* LAUREL APT   CLOUDY    59  55  87 N/A        N/A
* ROUNDUP APT  CLOUDY    61  55  81 N/A        N/A
* ALZADA       N/A       80  50  35 NE7        N/A
* HYSHAM       N/A       62  59  90 NW4        N/A
* LAME DEER    N/A       58  57  96 NW5        N/A
* REED POINT   N/A       65  54  68 NW3        N/A
* ROSCOE HILL  N/A       53  50  90 VRB6       N/A
$$

REGIONAL REPORTS...DAKOTAS
CITY           SKY/WX    TMP DP  RH WIND       PRES   REMARKS
WILLISTON      MOCLDY    75  55  50 NE9       29.96S
DICKINSON      PTCLDY    72  61  68 N12       29.96R
BEACH          N/A       72  61  68 NE7       29.99S
CROSBY         FAIR      72  59  64 N9        29.97S
TIOGA          FAIR      68  61  78 N10       30.01R
WATFORD CITY   CLEAR     73  55  53 N7        29.95R
BISMARCK       CLEAR     81  63  54 NW14      29.91R HI  82
GRAND FORKS    CLOUDY    77  68  74 CALM      29.82R
FARGO          PTCLDY    77  70  79 E3        29.81S
BUFFALO SD     PTCLDY    75  55  50 NE20      29.90S
RAPID CITY     MOCLDY    81  61  51 N7        29.95S HI  82
$$

REGIONAL REPORTS...WYOMING/IDAHO/WASHINGTON
CITY           SKY/WX    TMP DP  RH WIND       PRES   REMARKS
GILLETTE       MOCLDY    79  48  34 N7        29.98S
SHERIDAN       RAIN      63  57  81 NW3       30.05S
CODY           MOCLDY    64  54  70 N13       30.08R
YELLOWSTONE LA PTCLDY    54  43  67 CALM      30.24S
SALMON         CLOUDY    72  48  43 CALM      29.93S
MULLAN PASS    MOCLDY    54  46  74 VRB7      30.08S
SAND POINT     MOCLDY    73  52  48 NE5       29.93S
SPOKANE        MOCLDY    79  45  30 W9        29.91F
$$

REGIONAL REPORTS...SASKATCHEWAN
CITY           SKY/WX    TMP DP  RH WIND       PRES   REMARKS
SWIFT CURRENT  LGT RAIN  57  55  93 N14       30.11R

$$





U.S. Dept. of Commerce
NOAA National Weather Service
1325 East West Highway
Silver Spring, MD 20910
E-mail: w-nws.webmaster@noaa.gov
Page last modified: May 16, 2007
NATIONAL WEATHER SERVICE: for Safety, for Work, for Fun - FOR LIFE